Flag for Norway Weather past 2 weeks in Stange, Norway

Now
48 °F

Cool.


Feels Like: 48 °F
Forecast: 45 / 61 °F
Wind: No wind

Location: Haugedalshogda

Current Time: Aug 22, 2014 at 12:49:23 AM

Latest Report: Aug 22, 2014 at 12:00 AM


Visibility: N/A

Pressure: 29.69 "Hg

Humidity: 93%

Dew point: 46 °F

Location of StangeLocation

Historic Weather in Stange — Graph

°F

Stange temperature yesterday

Maximum temperature yesterday: 66 °F (at 3:00 PM)
Minimum temperature yesterday: 41 °F (at 6:00 AM)
Average temperature yesterday: 53 °F

Past Weeks' High & Low Weather Summary

 TemperatureHumidityPressure
High76 °F (Aug 9, 4:00 PM)95% (Aug 7, 6:00 AM)29.97 "Hg (Aug 7, 6:00 AM)
Low39 °F (Aug 18, 11:00 PM)34% (Aug 9, 3:00 PM)29.18 "Hg (Aug 18, 4:00 PM)
Average56 °F77%29.61 "Hg
* Reported Aug 6 11:00 PM — Aug 21 11:00 PM, Stange, Weather by CustomWeather, © 2014

Note: Actual official high and low records may vary slightly from our data, if they occured in-between our weather recording intervals... More about our weather records

Advertising

Stange weather history for previous 24 hours

 ConditionsComfort  
Time TempWeatherWind HumidityBarometerVisibility
11:00 PM
Aug 21
47 °FCool.1 mph93%29.68 "HgN/A
10:00 PM47 °FCool.1 mph90%29.67 "HgN/A
9:00 PM51 °FCool.1 mph88%29.65 "HgN/A
8:00 PM56 °FCool.1 mph78%29.63 "HgN/A
7:00 PM56 °FCool.2 mph77%29.63 "HgN/A
6:00 PM60 °FCool.1 mph66%29.60 "HgN/A
5:00 PM61 °FRefreshingly cool.3 mph57%29.60 "HgN/A
4:00 PM61 °FRefreshingly cool.3 mph52%29.59 "HgN/A
3:00 PM66 °FMild.1 mph38%29.58 "HgN/A
2:00 PM61 °FRefreshingly cool.3 mph52%29.60 "HgN/A
1:00 PM62 °FRefreshingly cool.2 mph47%29.59 "HgN/A
12:00 PM62 °FRefreshingly cool.3 mph52%29.60 "HgN/A
11:00 AM59 °FRefreshingly cool.3 mph57%29.60 "HgN/A
10:00 AM56 °FCool.1 mph62%29.60 "HgN/A
9:00 AM52 °FCool.2 mph74%29.60 "HgN/A
8:00 AM46 °FCool.1 mph93%29.61 "HgN/A
7:00 AM43 °FQuite cool.1 mph94%29.61 "HgN/A
6:00 AM41 °FQuite cool.1 mph93%29.60 "HgN/A
5:00 AM43 °FQuite cool.1 mph91%29.59 "HgN/A
4:00 AM45 °FQuite cool.No wind91%29.59 "HgN/A
3:00 AM47 °FCool.1 mph91%29.58 "HgN/A
2:00 AM48 °FCool.1 mph89%29.58 "HgN/A
1:00 AM49 °FCool.3 mph90%29.56 "HgN/A
12:00 AM51 °FCool.3 mph88%29.55 "HgN/A
Weather by CustomWeather, © 2014

See weather overviewHow to use our weather pages